Location: Unspecified
(0.0000°N, 0.0000°E)
Time: 20:35:06
(UTC+00:00)

Quakesat - Pass Details

Date: 05 August 2021
Orbit: 811 x 824 km, 98.7° (Epoch: 20 September)

Event Time Altitude Azimuth Distance (km) Brightness Sun altitude
Rises 18:40:45 0° 187° (S) 3,330 ? -8.3°
Reaches altitude 10° 18:43:21 10° 198° (SSW) 2,397 ? -8.9°
Maximum altitude 18:47:53 29° 257° (WSW) 1,438 ? -10.0°
Drops below altitude 10° 18:52:26 10° 317° (NW) 2,395 ? -11.1°
Sets 18:55:03 0° 328° (NNW) 3,326 ? -11.7°
